This is the latest recevied weather packets stored in our database for station/object KL1SF-7. If no packets are shown the sender has not sent any weather packets the latest 10 day(s).
| Time | Temp. | Humidity | Pressure | Rain* | Wind** | Luminosity | Snow |
|---|---|---|---|---|---|---|---|
| 1777623220 | 5.56° C | 30% | 1015.5 hPa | 0 mm | - | - | - |
| 1777622630 | 5° C | 31% | 1015.9 hPa | 0 mm | - | - | - |
| 1777622009 | 4.44° C | 32% | 1016 hPa | 0 mm | - | - | - |
| 1777621417 | 4.44° C | 33% | 1016 hPa | 0 mm | - | - | - |
| 1777620828 | 4.44° C | 32% | 1015.9 hPa | 0 mm | - | - | - |
| 1777620210 | 5° C | 32% | 1015.9 hPa | 0 mm | - | - | - |
| 1777619622 | 5° C | 31% | 1015.9 hPa | 0 mm | - | - | - |
| 1777619014 | 5.56° C | 30% | 1016 hPa | 0 mm | - | - | - |
| 1777618415 | 6.11° C | 28% | 1015.4 hPa | 0 mm | - | - | - |
| 1777617824 | 7.22° C | 28% | 1015.4 hPa | 0 mm | - | - | - |
| 1777617217 | 7.78° C | 26% | 1015.6 hPa | 0 mm | - | - | - |
| 1777616623 | 8.89° C | 25% | 1015 hPa | 0 mm | - | - | - |
| 1777616007 | 9.44° C | 24% | 1015 hPa | 0 mm | - | - | - |
| 1777615420 | 10° C | 24% | 1015.1 hPa | 0 mm | - | - | - |
| 1777614820 | 10° C | 23% | 1015.2 hPa | 0 mm | - | - | - |
| 1777614205 | 10° C | 23% | 1015.2 hPa | 0 mm | - | - | - |
| 1777613617 | 10° C | 23% | 1015.1 hPa | 0 mm | - | - | - |
| 1777613015 | 10° C | 23% | 1015.5 hPa | 0 mm | - | - | - |
| 1777612405 | 9.44° C | 24% | 1015.5 hPa | 0 mm | - | - | - |
| 1777611817 | 8.33° C | 26% | 1015.1 hPa | 0 mm | - | - | - |
| 1777611217 | 7.78° C | 28% | 1015 hPa | 0 mm | - | - | - |
| 1777610605 | 7.78° C | 28% | 1015 hPa | 0 mm | - | - | - |
| 1777610017 | 8.33° C | 27% | 1014.9 hPa | 0 mm | - | - | - |
| 1777609417 | 8.89° C | 27% | 1014.2 hPa | 0 mm | - | - | - |
| 1777608808 | 8.89° C | 25% | 1014.2 hPa | 0 mm | - | - | - |
* Rain since midnight (hover to see other rain measurements)
** Current wind speed in m/s (hover to see current wind gust speed)